Breeders Fall Classic - INVENTORY--ONLY BIRDS OUT

Station: INVENTORY - T Race

Distance: 10 Miles    

Release: 21-May-2020 09:00

Weather Release:    Arrival:

Wind at Release:     Wind at Arrival:

Temp at Release: °    Temp at Arrival: °

Lofts: 58

Birds: 212

Clocked: 137

Good Luck to Everyone!
Drops Pos Breeder Pigeon Name Color Sex Ent Arrival Speed To Win Elg PdColored
1 Stevw Piroch - OH 1108-AU20-IHC BC H 1 10:50:21.50 159.480 00:00:00 Yes
2 385 Connection - SC 10021-AU20-SCO 3207/8002 BB H 1 10:50:35.30 159.149 00:00:14 Yes
3 Red Ass Ranch - TX 0628-AU20-RAR BB H 1 11:08:47.20 136.660 00:18:26 Yes
4 Kastle Loft - KY 2021-AU20-KAST Kastle Caledonia BB H 1 11:08:52.90 136.559 00:18:31 Yes
5 S & P Loft - MI 1419-AU20-JEDD BBWF H 1 11:09:21.00 136.065 00:18:59 Yes
6 Smethers Loft - VA 0110-AU20-RICH BB H 1 11:11:38.90 133.690 00:21:17 Yes
7 Tim Byers - OH 1506-AU20-BUCK CHOC H 1 11:15:10.90 130.195 00:24:49 Yes
8 Robbie Howell - MS 2869-AU20-METO BB H 1 12:10:01.80 92.617 01:19:40 Yes
9 John Fukumoto - HI 0855-AU20-HAWN BB H 1 12:51:42.60 75.957 02:01:21 Yes
10 Loan Tran - MA 13098-AU20-FOYS BB H 1 13:04:55.90 71.857 02:14:34 Yes
11 Dons Loft - SC 5888-AU20-GSV BC H 1 13:31:28.80 64.830 02:41:07 Yes
12 385 Connection - SC 10026-AU20-SCO 1211/3989 BB H 2 13:43:56.50 61.985 02:53:35 Yes
13 Walters Loft - NJ 56477-AU20-ARPU WHGZ H 1 13:47:10.10 61.288 02:56:49 Yes
14 Bruce Daehn - FL 0411-AU20-NWFI BB H 1 13:47:57.70 61.119 02:57:36 Yes
15 Cherokee Loft - MI 0634-AU20-CHER 524 Trouble X 1221 Kolv BCPW H 1 13:49:26.40 60.807 02:59:05 Yes
16 KT Loft - IN 0408-AU20-KTLF BB H 1 13:53:22.30 59.992 03:03:01 Yes
17 Smethers Loft - VA 0112-AU20-RICH BB H 2 13:56:05.10 59.442 03:05:44 Yes
18 Dave Dudley/Ron Moden - CO 20426-AU20-PUEB BC H 1 13:56:25.20 59.375 03:06:04 Yes
19 Tim Byers - OH 1504-AU20-BUCK BB H 2 13:57:21.00 59.190 03:06:59 Yes
20 Hawkroost Loft - OH 0100-AU20-COV WHGZ H 1 14:10:27.50 56.690 03:20:06 Yes
21 KT Loft - IN 0426-AU20-KTLF BB H 2 14:20:03.10 54.991 03:29:42 Yes
22 Drama Queen Loft - TX 1089-AU20-GCI BB H 1 14:23:39.40 54.379 03:33:18 Yes
23 KT Loft - IN 0414-AU20-KTLF BBWF H 3 14:23:45.10 54.363 03:33:23 Yes
24 Holts Loft - NC 0500-AU20-MAC PENL H 1 14:25:36.80 54.052 03:35:15 Yes
25 Bruce Daehn - FL 0414-AU20-NWFI BB H 2 14:25:44.60 54.030 03:35:23 Yes
26 Mike Hines - SD 0575-AU20-GPF DC H 1 15:13:38.10 47.105 04:23:16 Yes
27 Dons Loft - SC 0139-IF20-CVR BB H 2 15:13:39.90 47.101 04:23:18 Yes
28 White Arrow Loft - IL 0507-AU20-LCC BB H 1 15:13:40.60 47.100 04:23:19 Yes
29 Mike Hines - SD 0567-AU20-GPF RCPW H 2 15:13:41.90 47.097 04:23:20 Yes
30 Andy Owen - GA 0018-AU20-AOWN BB H 1 15:13:42.60 47.095 04:23:21 Yes
31 Spirit Loft - NE 0504-AU20-GBC DC H 1 15:13:43.10 47.094 04:23:22 Yes
32 Bruce Daehn - FL 0413-AU20-NWFI BBWF H 3 15:13:43.90 47.093 04:23:22 Yes
33 Mike Hines - SD 0569-AU20-GPF DC H 3 15:13:46.40 47.087 04:23:25 Yes
34 A P C Loft - TX 20157-AU20-APC BC H 1 15:13:46.90 47.086 04:23:26 Yes
35 Loan Tran - MA 13099-AU20-FOYS BB H 2 15:13:47.90 47.084 04:23:26 Yes
35 Kastle Loft - KY 2071-AU20-KAST Kastle Titan BC H 2 15:13:48.20 47.084 04:23:26 Yes
37 Smethers Loft - VA 0111-AU20-RICH BB H 3 15:13:49.10 47.082 04:23:27 Yes
38 Marengo Creek Farms - AL 3623-AU20-MCF BB H 1 15:13:51.60 47.076 04:23:30 Yes
39 John Fukumoto - HI 0814-AU20-HAWN BCWF H 2 15:13:52.50 47.075 04:23:31 Yes
40 Marengo Creek Farms - AL 3617-AU20-MCF BBWF H 2 15:13:54.20 47.071 04:23:33 Yes
41 Walters Loft - NJ 56403-AU20-ARPU BB H 2 15:13:55.60 47.068 04:23:34 Yes
42 Rachel Olivieri - CA 20544-AU20-LAKE G X 1841 DC H 1 15:13:56.10 47.067 04:23:35 Yes
42 Steve Zurcher - OH 0476-AU20-OCR BC H 1 15:13:56.10 47.067 04:23:35 Yes
44 Iditarod Loft - MT 7514-AU20-AA BCPD H 1 15:14:01.30 47.056 04:23:40 Yes
45 Clear Springs Loft - FL 0066-AU20-WARD GRIZ H 1 15:14:03.90 47.051 04:23:42 Yes
46 Marengo Creek Farms - AL 3624-AU20-MCF BB H 3 15:14:04.30 47.050 04:23:43 Yes
47 Hale Nūnū - VA 0003-AU20-NUNU BC H 1 15:14:05.00 47.048 04:23:44 Yes
47 Rachel Olivieri - CA 20552-AU20-LAKE G X 1841 BBWF H 2 15:14:05.40 47.048 04:23:44 Yes
49 Andy Owen - GA 0025-AU20-AOWN BB H 2 15:14:08.20 47.042 04:23:47 Yes
50 White Arrow Loft - IL 0503-AU20-LCC BC H 2 15:14:09.20 47.040 04:23:47 Yes
51 Hale Nūnū - VA 0001-AU20-NUNU BB H 2 15:14:09.70 47.038 04:23:48 Yes
52 Holts Loft - NC 11690-AU20-AA BB H 2 15:14:10.50 47.037 04:23:49 Yes
53 Hawkroost Loft - OH 0408-AU20-COV BC H 2 15:14:13.00 47.032 04:23:51 Yes
53 John Fukumoto - HI 0813-AU20-HAWN BC H 3 15:14:13.00 47.032 04:23:51 Yes
55 John V. Partridge - CA 2124-AU20-PASO BB H 1 15:14:13.80 47.030 04:23:52 Yes
56 A P C Loft - TX 20152-AU20-APC BB H 2 15:14:15.00 47.027 04:23:54 Yes
57 S & P Loft - MI 1408-AU20-JEDD CHOC H 2 15:14:17.20 47.023 04:23:56 Yes
58 Drama Queen Loft - TX 1088-AU20-GCI BC H 2 15:14:17.70 47.022 04:23:56 Yes
59 Iditarod Loft - MT 7513-AU20-AA BC H 2 15:14:20.20 47.017 04:23:58 Yes
60 Drama Queen Loft - TX 1083-AU20-GCI DC H 3 15:14:23.20 47.010 04:24:02 Yes
61 John Haller - OH 0503-AU20-IHC BB H 1 15:14:24.40 47.008 04:24:03 Yes
62 Magic Pick Loft - OH 0039-AU20-IHC BBPW H 1 15:14:24.80 47.007 04:24:03 Yes
63 Ron Pairan - OH 0651-AU20-LFO BB H 1 15:14:28.90 46.998 04:24:08 Yes
64 385 Connection - SC 0015-AU20-GRPC BBWF H 3 15:14:30.90 46.994 04:24:09 Yes
65 Andy Owen - GA 0019-AU20-AOWN BB H 3 15:14:31.40 46.993 04:24:10 Yes
66 Hawkroost Loft - OH 0103-AU20-COV BC H 3 15:14:33.20 46.989 04:24:12 Yes
66 Liberty Loft - MA 13104-AU20-FOYS BB H 1 15:14:33.20 46.989 04:24:12 Yes
68 Andy Owen - GA 0023-AU20-AOWN BB H 4 15:14:33.70 46.988 04:24:12 Yes
69 John Fukumoto - HI 0844-AU20-HAWN BB H 4 15:14:35.00 46.986 04:24:13 Yes
70 Ron Pairan - OH 0642-AU20-LFO BCWF H 2 15:14:38.20 46.979 04:24:17 Yes
71 Hale Nūnū - VA 0009-AU20-NUNU BBSP H 3 15:14:40.40 46.974 04:24:19 Yes
72 A P C Loft - TX 20159-AU20-APC BC H 3 15:14:41.60 46.972 04:24:20 Yes
73 Elton Dinga - TX 11047-AU20-AA Purdey 1286 x Purdey 1004 BB H 1 15:14:42.30 46.970 04:24:21 Yes
74 Rachel Olivieri - CA 20551-AU20-LAKE G X 1841 BCWF H 3 15:14:44.00 46.967 04:24:22 Yes
75 - 13013-AU20-FOYS 2 15:14:44.80 46.965 04:24:23
76 Era Loft - NY 0319-AU20-BUF DC H 1 15:14:46.90 46.961 04:24:25 Yes
77 Tex-Mex Loft - TX 0081-AU20-TXMX Baronesa Roja RC H 1 15:14:47.40 46.960 04:24:26 Yes
78 Era Loft - NY 0309-AU20-BUF BC H 2 15:14:47.80 46.959 04:24:26 Yes
79 Tex-Mex Loft - TX 0307-AU20-NSL Peppermint RCGZ H 2 15:14:52.00 46.950 04:24:30 Yes
80 Dave Dudley/Ron Moden - CO 20102-AU20-PUEB BBPD H 2 15:14:52.30 46.949 04:24:31 Yes
80 Holts Loft - NC 11667-AU20-AA BBPW H 3 15:14:52.70 46.949 04:24:31 Yes
82 Red Ass Ranch - TX 0639-AU20-RAR BBWF H 2 15:14:53.70 46.946 04:24:32 Yes
83 A P C Loft - TX 20150-AU20-APC BB H 4 15:14:55.10 46.944 04:24:33 Yes
84 Spirit Loft - NE 0501-AU20-GBC BB H 2 15:14:55.90 46.942 04:24:34 Yes
85 Walters Loft - NJ 56457-AU20-ARPU BB H 3 15:14:58.80 46.936 04:24:37 Yes
86 Drama Queen Loft - TX 1082-AU20-GCI BB H 4 15:14:59.60 46.934 04:24:38 Yes
87 Iditarod Loft - MT 7510-AU20-AA BB H 3 15:15:01.40 46.930 04:24:40 Yes
88 Hayloft - CA 0269-AU20-GSF BB H 1 15:15:04.00 46.925 04:24:42 Yes
88 Cherokee Loft - MI 0632-AU20-CHER 51 Bourgoin X 1557 Nanez SILV H 2 15:15:04.00 46.925 04:24:42 Yes
90 Elton Dinga - TX 11048-AU20-AA Hebberecht 579 Br Jempy BC H 2 15:15:04.50 46.924 04:24:43 Yes
90 Borgeson Loft - LA 20527-AU20-MET DC H 1 15:15:04.60 46.924 04:24:43 Yes
92 Tim Byers - OH 1507-AU20-BUCK BB H 3 15:15:06.60 46.920 04:24:45 Yes
93 Hayloft - CA 0153-AU20-GSF BC H 2 15:15:07.90 46.917 04:24:46 Yes
94 Tex-Mex Loft - TX 0048-AU20-TXMX Miss Mississippi RC H 3 15:15:09.70 46.913 04:24:48 Yes
95 Ron Pairan - OH 0647-AU20-LFO BB H 3 15:15:10.40 46.912 04:24:49 Yes
96 Kastle Loft - KY 2041-AU20-KAST Kastle Intrepid BB H 3 15:15:11.40 46.910 04:24:50 Yes
97 Elton Dinga - TX 11045-AU20-AA Kruger 1905 x Purdy 12005 BB H 3 15:15:16.00 46.900 04:24:54 Yes
98 KT Loft - IN 0410-AU20-KTLF BB H 4 15:15:18.70 46.894 04:24:57 Yes
99 Mike Hines - SD 0573-AU20-GPF DC H 4 15:15:19.20 46.893 04:24:58 Yes
100 Red Ass Ranch - TX 0633-AU20-RAR BB H 3 15:15:22.90 46.886 04:25:01 Yes

There are 238 bird records

Note: These Race Results are unofficial and subject to change until verified by the Race Committee and declared final.